Regional Weather Roundup
Issued by NWS Spokane, WA

Home | Current Version | Previous Version | Text Only | Print | Product List | Glossary On
Versions: 1 2 3 4 5 6 7 8 9 10 11 12 13 14 15 16 17 18 19 20 21 22 23 24 25 26 27 28 29 30 31 32 33 34 35 36 37 38 39 40 41 42 43 44 45 46 47 48 49 50
949
NZUS01 KOTX 241425
RWROTX

Eastern Washington/Northern Idaho Roundup
National Weather Service, Spokane WA
600 AM PST SAT FEB 24 2018

Note: "fair" indicated few or no clouds below 12,000 feet with no
significant weather and/or obstructions to visibility.

...Northeast Washington and Northern Idaho Panhandle...

CITY           SKY/WX    TMP DP  RH WIND       PRES   REMARKS
Spokane Intl   CLOUDY    25  22  88 SE6       29.84F WCI  18
Spokane Downto CLOUDY    27  21  78 NE6       29.88F WCI  20
Coeur d Alene  LGT SNOW  25  21  86 SE5       29.86F FOG     WCI  19
Deer Park      FLURRIES  23  20  88 NE5       29.87F WCI  17
Sandpoint      LGT SNOW  23  21  93 N7        29.90F WCI  15
Bonners Ferry  CLOUDY    19  18  93 N5        29.89F WCI  13

...Southeast Washington and southern Idaho Panhandle...

CITY           SKY/WX    TMP DP  RH WIND       PRES   REMARKS
Walla Walla    FLURRIES  35  32  88 S14       29.91F WCI  26
Pullman/Moscow LGT SNOW  24  21  88 E15       29.85F FOG     WCI  11
Lewiston       CLOUDY    31  24  75 NE5       29.91F WCI  26
Lowell           N/A     26  25  96 CALM      30.02F
Grangeville    CLOUDY    27  19  74 S20G28    29.84F WCI  13

...Columbia Basin...

CITY           SKY/WX    TMP DP  RH WIND       PRES   REMARKS
Ephrata        PTCLDY    20  17  88 N8        29.85F WCI  10
Moses Lake     MOCLDY    20  17  88 N10       29.86F WCI   9
Pasco          CLOUDY    38  30  73 SW20G26   29.91F
Richland       CLOUDY    38  32  79 SW12G20   29.90F
Hermiston      CLOUDY    34  31  88 S6        29.90F WCI  29
Pendleton      CLOUDY    34  31  88 S12       29.90F WCI  25

...East Slopes Cascades...

CITY           SKY/WX    TMP DP  RH WIND       PRES   REMARKS
The Dalles     LGT SNOW  32  30  92 CALM      29.96F FOG
Yakima         MOCLDY    19  15  84 W6        29.88F WCI  11
Ellensburg     LGT SNOW  23  19  85 SW3       29.82F VSB 1
Stampede Pass  SNOW      26  24  92 VRB7      29.71S VSB 1/4 WCI  18
Wenatchee      CLOUDY    21  19  92 CALM      29.87F
Winthrop       CLOUDY    14   9  81 NW3       29.92F
Omak           CLOUDY    26  22  84 N5        29.90F WCI  20
Sunnyside      MOSUNNY   28  24  84 N5        29.86F WCI  23

...Southern British Columbia...

CITY           SKY/WX    TMP DP  RH WIND       PRES   REMARKS
Penticton      LGT SNOW  25  23  93 SE3       29.93S VSB 3/4
Castlegar      FLURRIES  21  19  93 CALM      29.94
Cranbrook      MOCLDY     7   1  78 CALM      29.86F
Osoyoos          N/A     27  23  86 CALM        N/A
Creston          N/A     19  18  93 N1          N/A

...Western Montana...

CITY           SKY/WX    TMP DP  RH WIND       PRES   REMARKS
Kalispell      CLOUDY    15  12  88 W6        29.88F WCI   6
Missoula       MOCLDY    15  11  83 CALM      29.90F

...Neighboring Cities...

CITY           SKY/WX    TMP DP  RH WIND       PRES   REMARKS
Seattle        CLOUDY    36  34  92 SW9       29.92R
Portland       MOCLDY    39  36  89 W10       30.05R
Boise          FLURRIES  25  21  85 E13       30.07F WCI  14
Great Falls    CLEAR     17   7  64 SW23      29.71F WCI  -1
Calgary        MOCLDY    21   0  39 W18G25    29.57R WCI   6



USA.gov is the U.S. government's official web portal to all federal, state and local government web resources and services.